Regional Weather Roundup
Issued by NWS

Home | Current Version | Previous Version | Text Only | Print | Product List | Glossary Off
Versions: 1 2 3 4 5 6 7 8 9 10 11 12 13 14 15 16 17 18 19 20 21 22 23 24 25 26 27 28 29 30 31 32 33 34 35 36 37 38 39 40 41 42 43 44 45 46 47 48 49 50

000
ASUS43 KMKX 011011
RWRWI

WISCONSIN REGIONAL WEATHER ROUNDUP
NATIONAL WEATHER SERVICE MILWAUKEE/SULLIVAN WI
500 AM CDT WED OCT 01 2014

NOTE: "FAIR" INDICATES FEW OR NO CLOUDS BELOW 12,000 FEET WITH NO
SIGNIFICANT WEATHER AND/OR OBSTRUCTIONS TO VISIBILITY.

WIZ001-002-006>008-014>016-023>028-011100-
NORTHWEST WISCONSIN

CITY           SKY/WX    TMP DP  RH WIND       PRES   REMARKS
SUPERIOR ARPT  CLOUDY    47  44  88 E6        29.88F
ASHLAND        MOCLDY    44  41  89 CALM      29.94S
HAYWARD        CLOUDY    47  43  86 SE9       29.92F
SIREN          CLOUDY    48  43  81 S9        29.88S
CUMBERLAND     CLOUDY    45  43  93 SE9       29.90S
RICE LAKE      CLOUDY    47  43  84 SE15G21   29.92F
CHETEK         CLOUDY    47  44  89 E12       29.93S
LADYSMITH      CLOUDY    47  43  87 SE12      29.97F
EAU CLAIRE     CLOUDY    48  43  82 SE13G21   29.93F
MENOMONIE      CLOUDY    48  44  84 E12       29.92F
NEW RICHMOND   MOCLDY    48  43  81 SE7       29.87F
OSCEOLA        CLOUDY    49  44  83 SE12      29.89F
$$

WIZ003>005-009-010-017-018-011100-
NORTH CENTRAL WISCONSIN

CITY           SKY/WX    TMP DP  RH WIND       PRES   REMARKS
MANITOWISH WTR CLOUDY    43  43 100 S9        29.98R FOG
ARBOR VITAE    CLOUDY    44  42  94 S10G17    29.99S FOG
WOODRUFF       CLOUDY    44  42  94 S10G17    29.99S FOG
RHINELANDER    CLOUDY    43  42  97 S6        30.01S FOG
EAGLE RIVER    CLOUDY    43  43 100 S9        30.00R FOG
LAND O LAKES   CLOUDY    45  44  98 S6        30.00R FOG
PHILLIPS       CLOUDY    44  42  94 S8        29.97S FOG
TOMAHAWK       CLOUDY    43  42  95 SE6       29.99F FOG
MEDFORD        CLOUDY    44  43  97 SE10      29.97S FOG
MERRILL        CLOUDY    44  44 100 S6        30.00S FOG
$$

WIZ029-030-035-036-043>047-011100-
CENTRAL WISCONSIN

CITY           SKY/WX    TMP DP  RH WIND       PRES   REMARKS
WAUSAU         CLOUDY    45  44  97 SE7       30.00S FOG
MOSINEE        CLOUDY    43  43 100 CALM      30.01S FOG
MARSHFIELD     CLOUDY    47  43  86 SE13      29.99S
STEVENS POINT  DRIZZLE   44  44  99 CALM      30.01S
WAUPACA        CLOUDY    49  48  95 CALM      30.01S FOG
WAUTOMA        NOT AVBL
WISC RAPIDS    CLOUDY    46  45  96 SE3       30.02R FOG
CAMP DOUGLAS   CLOUDY    48  48 100 SE5       29.99S
$$

WIZ011>013-019>022-031-037>040-048>050-011100-
NORTHEAST WISCONSIN

CITY           SKY/WX    TMP DP  RH WIND       PRES   REMARKS
ANTIGO         CLOUDY    44  44 100 S5        30.01S FOG
SHAWANO        CLOUDY    48  46  93 CALM      30.02F FOG
OCONTO         CLOUDY    50  50 100 S5        30.01S
STURGEON BAY   NOT AVBL
GREEN BAY      CLOUDY    49  49 100 CALM      30.02F FOG
MANITOWOC      NOT AVBL
APPLETON       CLOUDY    46  46 100 E3        30.01S FOG
CLINTONVILLE   CLOUDY    45  45 100 NE3       30.01S
OSHKOSH        CLOUDY    50  49  96 CALM      30.00F
$$

WIZ032>034-041-042-053>061-011100-
SOUTHWEST WISCONSIN

CITY           SKY/WX    TMP DP  RH WIND       PRES   REMARKS
LA CROSSE      CLOUDY    50  44  80 SE8       29.95S
SPARTA         CLOUDY    47  43  86 SE6       29.98S
VIROQUA        CLOUDY    47  47 100 SE10G16   29.95F
BOSCOBEL       CLOUDY    51  46  83 VRB3      29.97F
PRAIRIE DU CHI CLOUDY    50  45  83 SE6       29.95F
PLATTEVILLE    MOCLDY    50  47  92 E7        29.97S
$$

WIZ056-057-062-063-064-067-068-011100-
SOUTH CENTRAL WISCONSIN

CITY           SKY/WX    TMP DP  RH WIND       PRES   REMARKS
REEDSBURG      CLOUDY    48  46  90 SE6       29.98S
BARABOO/DELLS  CLOUDY    48  45  90 SE5       29.98F
LONE ROCK      CLOUDY    55  46  71 SE9       29.98S
MINERAL POINT  CLOUDY    50  46  87 SE7       29.97F
MADISON        CLOUDY    50  46  86 CALM      29.99S
MIDDLETON      CLOUDY    51  48  90 SE5       30.00S
WATERTOWN      CLOUDY    49  49 100 CALM      29.99S
MONROE         MOCLDY    48  46  93 E5        29.98S
JANESVILLE     CLOUDY    52  46  82 E3        29.98S
$$

WIZ051-052-058>065-066-070>072-011100-
SOUTHEAST WISCONSIN

CITY           SKY/WX    TMP DP  RH WIND       PRES   REMARKS
MILWAUKEE      CLOUDY    56  48  74 SE8       30.00S
WAUKESHA       CLOUDY    50  48  93 SE5       30.00S
MILWAUKEE/TIMM CLOUDY    54  48  82 S3        30.01S
RACINE         CLOUDY    57  47  69 SE8       30.01F
BURLINGTON     CLOUDY    51  47  84 SE6       29.99S
KENOSHA        CLOUDY    55  48  77 SE13      30.00F
FOND DU LAC    CLOUDY    50  47  89 CALM      30.00F
SHEBOYGAN      CLOUDY    52  49  89 S3        30.01
WEST BEND      CLOUDY    50  46  87 E3        30.00S
JUNEAU         CLOUDY    50  47  91 E6        30.00S
$$

LSZ147-162-011100-
LAKE SUPERIOR

STATION/POSITION TIME  TEMP    WIND        PRES    WAVE
                       AIR SEA DIR/SP/G            HT/PER
                 (UTC) (F)     (DEG/KT/KT) (MB)    (FT/S)
W MID LAKE BUOY  0950   49 50  160/ 14/ 17 1014.3R   2/ 4
DEVILS ISLAND    1000   49     190/  5/  9 1013.8F
SAXON HARBOR     0900   42        CALM     1014.2
$$

LMZ867-665-643>646-011100-
LAKE MICHIGAN

STATION/POSITION TIME  TEMP    WIND        PRES    WAVE
                       AIR SEA DIR/SP/G            HT/PER
                 (UTC) (F)     (DEG/KT/KT) (MB)    (FT/S)
CHAMBERS ISLAND  0900   52     140/  2/  5 1016.6F
S GREEN BAY BUOY 1000   52                 1017.4F
N MID LAKE BUOY  0950   54 58  190/ 10/ 10 1017.2F   1/ 3
NORTHPORT PIER   0900   53     150/  9/ 11 1016.6F
SISTER BAY       0927             CALM       N/A
KEWAUNEE LAKESHO 0900   53     160/  8/ 10 1015.8F
SHEBOYGAN LAKESH 1000   56 54  130/ 11/ 12 1016.6F
PORT WASHINGTON  0900   57     160/  9/ 10 1016.6S
ATWATER BUOY     1000   58     140/ 10/ 12 1016.6F
MILWAUKEE LAKESH 0900   57     140/ 10/ 13   N/A
S MID LAKE BUOY  0950   57 62  140/ 10/ 12 1016.6R   2/ 5
KENOSHA   LAKESH 1000   57     150/ 13/ 19 1015.6F
$$

TC  - TEMPERATURE IN CELSIUS
VSB - VISIBILITY IN STATUTE MILES
WCI - WIND CHILL INDEX
HX  - HEAT INDEX



USA.gov is the U.S. government's official web portal to all federal, state and local government web resources and services.